Chamberlain, SD

6:45 PM CDT on October 20, 2017 (GMT -0500)
Chamberlain

Weather History for K9V9 - January, 2013

Change the Weather History Date:

Friday, January 11, 2013

  Actual Average Record
Temperature  
Mean Temperature 25 °F -  
Max Temperature 36 °F 26 °F 57 °F (2004)
Min Temperature 12 °F 7 °F -13 °F (1997)
Degree Days  
Heating Degree Days 40    
Moisture  
Dew Point 23 °F    
Average Humidity 87    
Maximum Humidity 92    
Minimum Humidity 78    
Precipitation  
Precipitation 0.04 in - - ()
Sea Level Pressure  
Sea Level Pressure 29.53 in    
Wind  
Wind Speed 14 mph (NW)    
Max Wind Speed 26 mph    
Max Gust Speed 37 mph    
Averages and records for this station are not official NWS values.
T = Trace of Precipitation, MM = Missing Value Source: NWS Daily Summary

Daily Weather History Graph

Daily Weather History Graph

Search for Another Location

Airport or City:

Trip Planner

Search our weather history database for the weather conditions in past years. The results will help you decide how hot, cold, wet, or windy it might be!

Date:

Astronomy

Jan. 11, 2013 Rise Set
Actual Time 8:09 AM CST 5:21 PM CST
Civil Twilight 7:37 AM CST 5:53 PM CST
Nautical Twilight 7:01 AM CST 6:29 PM CST
Astronomical Twilight 6:27 AM CST 7:03 PM CST
Moon 7:42 AM CST (1/11) 5:43 PM CST (1/11)
Length of Visible Light 10h 15m
Length of Day
9h 11m
Waning Crescent, 0% of the Moon is Illuminated
Jan 11
Waning Crescent
Jan 11
New
Jan 18
First Quarter
Jan 26
Full
Feb 3
Last Quarter

Hourly Weather History & Observations

Time (CST) Temp. Windchill Dew Point Humidity Pressure Visibility Wind Dir Wind Speed Gust Speed Precip Events Conditions
12:52 AM 36.0 °F 28.0 °F 33.1 °F 89% 29.50 in - SSW 11.5 mph - N/A   Unknown
1:52 AM 36.0 °F 29.0 °F 33.1 °F 89% 29.49 in - SSW 9.2 mph - N/A   Unknown
2:52 AM 36.0 °F 29.0 °F 33.1 °F 89% 29.47 in - SSW 9.2 mph - N/A   Unknown
3:52 AM 35.1 °F 30.1 °F 32.0 °F 89% 29.46 in - SSW 5.8 mph - N/A   Unknown
4:52 AM 35.1 °F 30.1 °F 30.9 °F 85% 29.45 in - WSW 5.8 mph - N/A   Unknown
5:52 AM 36.0 °F 29.6 °F 32.0 °F 86% 29.43 in - WNW 8.1 mph - N/A   Unknown
6:52 AM 34.0 °F 24.2 °F 32.0 °F 92% 29.45 in - NNW 15.0 mph - N/A   Unknown
7:52 AM 32.0 °F - 28.9 °F 88% 29.44 in - North - - N/A   Unknown
8:52 AM 30.9 °F 21.2 °F 28.0 °F 89% 29.48 in - NW 12.7 mph - N/A   Unknown
9:52 AM 30.9 °F 19.8 °F 28.0 °F 89% 29.47 in - NNW 16.1 mph 21.9 mph N/A   Unknown
10:52 AM 28.0 °F 16.5 °F 26.1 °F 92% 29.50 in - NW 15.0 mph - N/A   Unknown
11:52 AM 27.0 °F 13.2 °F 25.0 °F 92% 29.49 in - NW 20.7 mph 28.8 mph N/A   Unknown
12:52 PM 26.1 °F 12.0 °F 23.0 °F 88% 29.46 in - NNW 20.7 mph 27.6 mph N/A   Unknown
1:52 PM 24.1 °F 9.8 °F 21.0 °F 88% 29.44 in - NNW 19.6 mph 33.4 mph N/A   Unknown
2:52 PM 23.0 °F 6.6 °F 19.0 °F 85% 29.46 in - NNW 25.3 mph 35.7 mph N/A   Unknown
3:52 PM 21.9 °F 6.5 °F 19.0 °F 89% 29.51 in - NNW 20.7 mph 31.1 mph N/A   Unknown
4:52 PM 21.0 °F 6.6 °F 17.1 °F 85% 29.54 in - NW 17.3 mph 23.0 mph N/A   Unknown
5:52 PM 19.9 °F 5.2 °F 16.0 °F 85% 29.58 in - NW 17.3 mph 26.5 mph N/A   Unknown
6:52 PM 18.0 °F 0.2 °F 12.0 °F 78% 29.62 in - NW 24.2 mph 34.5 mph N/A   Unknown
7:52 PM 17.1 °F 0.6 °F 12.9 °F 84% 29.67 in - NNW 19.6 mph 29.9 mph N/A   Unknown
8:52 PM 16.0 °F -2.1 °F 10.9 °F 81% 29.67 in - NW 23.0 mph 31.1 mph 0.01 in   Unknown
9:52 PM 14.0 °F -4.7 °F 10.0 °F 84% 29.70 in - NW 23.0 mph 36.8 mph 0.01 in   Unknown
10:52 PM 14.0 °F -5.8 °F 9.0 °F 80% 29.73 in - NW 26.5 mph 34.5 mph N/A   Unknown
11:52 PM 12.9 °F -4.9 °F 8.1 °F 81% 29.79 in - NW 19.6 mph 27.6 mph 0.02 in   Unknown